Probability
0 0 0 0 0 0 0 0 0 0 0 0 0 0 0 0 0 0 0 0 0 0 0 0 0 0 1 1 1 0 0 0 0 0 0 0 0 0 0 0 0 0 0
0 0 0 0 0 0 0 0 0 0 0 0 0 0 0 0 0 0 0 0 0 0 0 0 0 0 0 0 0 0 0 0 0 0 0 0 0 0 0 0 0 0 0
0 0 0 0 0 0 0 0 0 0 0 0 0 0 0 0 0 0 0 0 0 0 0 0 0 0 0 0 0 0 0 0 0 0 0 0 0 0 0 0 0 0 0
0 0 0 0 0 0 0 0 0 0 0 0 0 0 0 0 0 0 0 0 0 0 0 0 0 0 0 0 0 0 0 0 0 0 0 0 0 0 0 0 0 0 0
0 0 0 0 0 0 0 0 0 0 0 0 0 0 0 0 0 0 0 0 0 0 0 0 0 0 0 0 0 0 0 0 0 0 0 0 0 0 0 0 0 0 0
0 0 0 0 0 0 0 0 0 0 0 0 0 0 0 0 0 0 0 0 0 0 0 0 0 0 0 0 0 0 0 0 0 0 0 0 0 0 0 0 0 0 0
0 0 0 0 0 0 0 0 0 0 0 0 0 0 0 0 0 0 0 0 0 0 0 0 0 0 0 0 0 0 0 0 0 0 0 0 0 0 0 0 0 0 0
0 0 0 0 0 0 0 0 0 0 0 0 0 0 0 0 0 0 0 0 0 0 0 0 0 0 0 0 0 0 0 0 0 0 0 0 0 0 0 0 0 0 0
0 0 0 0 0 0 0 0 0 0 0 0 0 0 0 0 0 0 0 0 0 0 0 0 0 0 0 0 0 0 0 0 0 0 0 0 0 0 0 0 0 0 0
0 0 0 0 0 0 0 0 0 0 0 0 0 0 0 0 0 0 0 0 0 0 0 0 0 0 0 0 0 0 0 0 0 0 0 0 0 0 0 0 0 0 0
0 0 0 0 0 0 0 0 0 0 0 0 0 0 0 0 0 0 0 0 0 0 0 0 0 0 0 0 0 0 0 0 0 0 0 0 0 0 0 0 0 0 0
0 0 0 0 0 0 0 0 0 0 0 0 0 0 0 0 0 0 0 0 0 0 0 0 0 0 0 0 0 0 0 0 0 0 0 0 0 0 0 0 0 0 0
0 0 0 0 0 0 0 0 0 0 0 0 0 0 0 0 0 0 0 0 0 0 0 0 0 0 0 0 0 0 0 0 0 0 0 0 0 0 0 0 0 0 0
0 0 0 0 0 0 0 0 0 0 0 0 0 0 0 0 0 0 0 0 0 0 0 0 0 0 0 0 0 0 0 0 0 0 0 0 0 0 0 0 0 0 0
0 0 0 0 0 0 0 0 0 0 0 0 0 0 0 0 0 0 0 0 0 0 0 0 0 0 0 0 0 0 0 0 0 0 0 0 0 0 0 0 0 0 0
0 0 0 0 0 0 0 0 0 0 0 0 0 0 0 0 0 0 0 0 0 0 0 0 0 0 0 0 0 0 0 0 0 0 0 0 0 0 0 0 0 0 0
0 0 0 0 0 0 0 0 0 0 0 0 0 0 0 0 0 0 0 0 0 0 0 0 0 0 0 0 0 0 0 0 0 0 0 0 0 0 0 0 0 0 0
0 0 0 0 0 0 0 0 0 0 0 0 0 0 0 0 0 0 0 0 0 0 0 0 0 0 0 0 0 0 0 0 0 0 0 0 0 0 0 0 0 0 0
0 0 0 0 0 0 0 0 0 0 0 0 0 0 0 0 0 0 0 0 0 0 0 0 0 0 0 0 0 0 0 0 0 0 0 0 0 0 0 0 0 0 0
0 0 0 0 0 0 0 0 0 0 0 0 0 0 0 0 0 0 0 0 0 0 0 0 0 0 0 0 0 0 0 0 0 0 0 0 0 0 0 0 0 0 0
0 0 0 0 0 0 0 0 0 0 0 0 0 0 0 0 0 0 0 0 0 0 0 0 0 0 0 0 0 0 0 0 0 0 0 0 0 0 0 0 0 0 0
0 0 0 0 0 0 0 0 0 0 0 0 0 0 0 0 0 0 0 0 0 0 0 0 0 0 0 0 0 0 0 0 0 0 0 0 0 0 0 0 0 0 0
0 0 0 0 0 0 0 0 0 0 0 0 0 0 0 0 0 0 0 0 0 0 0 0 0 0 0 0 0 0 0 0 0 0 0 0 0 0 0 0 0 0 0
0 0 0 0 0 0 0 0 0 0 0 0 0 0 0 0 0 0 0 0 0 0 0 0 0 0 0 0 0 0 0 0 0 0 0 0 0 0 0 0 0 0 0
0 0 0 0 0 0 0 0 0 0 0 0 0 0 0 0 0 0 0 0 0 0 0 0 0 0 0 0 0 0 0 0 0 0 0 0 0 0 0 0 0 0 0
0 0 0 0 0 0 0 0 0 0 0 0 0 0 0 0 0 0 0 0 0 0 0 0 0 0 0 0 0 0 0 0 0 0 0 0 0 0 0 0 0 0 0
Wind_Speed
12 12 13 14 14 15 14 17 18 18 18 19 19 17 16 16 17 17 16 18 13 11 9 11 11 13 12 23 13 16 16 17 17 6 4 11 14 14 11 11 11 12 13
13 13 15 15 16 16 15 17 18 19 19 19 19 18 17 17 17 18 17 18 15 12 11 11 12 13 16 17 11 17 17 19 18 15 9 12 14 17 16 13 10 10 11
13 14 15 16 17 17 17 17 18 19 19 20 19 18 17 17 17 18 17 17 17 13 11 10 9 11 12 14 11 14 15 15 16 18 14 13 7 10 13 9 7 6 7
13 14 16 17 17 18 18 18 18 19 19 20 19 19 18 17 18 18 17 17 17 16 12 8 8 11 11 19 13 15 15 15 16 16 16 15 13 10 15 14 10 6 5
14 15 16 17 17 18 18 18 18 19 18 19 19 18 17 16 16 19 17 17 17 17 14 9 8 12 17 26 14 16 17 16 16 14 13 14 13 13 17 16 15 9 3
14 15 17 18 18 18 19 19 19 19 18 18 18 18 17 15 22 28 25 17 16 16 15 12 8 13 17 26 16 21 23 23 20 17 15 18 18 20 17 17 15 13 8
15 16 16 17 18 19 19 20 19 19 18 18 18 17 17 17 24 29 30 19 15 16 15 12 8 10 12 16 14 24 25 29 30 24 21 22 21 23 23 20 16 15 7
15 16 16 17 18 19 19 19 20 18 17 17 18 18 17 17 26 28 29 19 16 17 16 15 12 11 14 15 11 21 22 24 26 24 26 25 24 24 22 22 18 10 7
15 17 17 17 18 19 19 19 19 19 18 16 17 17 17 18 24 27 25 14 14 15 15 15 15 15 20 22 14 19 21 20 23 26 29 31 33 32 26 21 17 16 9
16 17 17 16 16 18 18 18 18 18 17 16 17 17 17 16 23 28 25 13 14 12 13 15 17 19 24 24 16 19 22 20 16 13 18 23 28 29 30 26 24 19 12
16 17 17 16 16 16 17 17 16 16 16 16 17 16 15 14 21 29 28 16 13 12 12 12 11 21 26 27 22 19 24 20 18 18 15 14 16 18 19 18 20 20 17
16 16 16 16 14 13 16 15 15 15 15 15 15 14 11 12 16 25 31 26 21 15 12 10 11 20 26 27 22 23 30 24 17 17 16 16 17 17 18 17 16 14 15
15 15 15 15 14 14 14 15 12 12 12 13 13 13 12 11 13 25 21 25 28 20 12 14 17 23 25 23 27 28 26 20 18 18 19 18 17 18 16 14 12 8 5
14 14 14 15 15 13 12 11 11 11 12 13 12 13 15 13 12 14 12 13 18 17 15 16 20 19 18 18 22 22 18 17 19 18 16 15 15 16 15 15 13 13 10
12 13 13 12 13 13 12 13 13 13 16 15 12 14 15 16 20 27 23 19 17 16 13 11 11 12 13 14 16 16 16 16 17 17 15 15 14 15 14 15 13 14 14
11 11 11 11 11 12 13 13 18 23 26 25 25 24 18 25 34 35 35 39 40 32 18 10 10 12 12 13 14 14 15 16 16 17 15 16 17 17 16 14 14 14 15
7 9 10 10 11 12 13 14 16 20 23 25 29 30 29 27 28 31 35 33 20 16 13 11 10 10 11 11 13 14 14 14 16 15 16 17 17 17 19 17 16 15 14
7 8 9 9 10 11 12 12 13 14 17 17 24 28 29 30 28 28 27 18 13 12 8 7 5 4 8 10 12 13 13 14 14 14 14 16 17 18 18 18 17 17 16
6 7 8 8 9 11 11 12 12 13 13 13 17 21 25 29 29 29 28 17 14 12 12 11 10 9 8 1 7 11 13 14 15 14 14 15 16 17 16 17 17 20 19
5 8 8 7 9 10 10 11 12 13 13 14 15 17 19 20 19 20 18 16 14 13 13 12 11 10 10 10 7 3 11 13 14 13 13 14 15 17 17 18 17 18 17
4 6 8 7 7 9 10 11 11 12 12 13 13 19 30 19 15 15 15 14 14 14 14 13 13 13 12 11 10 8 1 8 12 13 13 13 15 15 15 16 17 17 17
3 4 5 5 7 8 9 9 10 11 12 12 12 18 26 16 13 14 14 14 13 13 14 13 13 13 12 12 12 11 11 9 4 4 10 12 13 14 14 14 14 15 16
3 4 4 5 6 8 8 8 9 10 11 11 12 12 13 13 13 13 13 13 14 14 14 13 14 14 14 13 12 12 11 10 9 7 2 7 9 10 11 12 14 14 14
4 4 5 5 6 6 7 8 9 11 11 11 11 11 12 12 12 13 13 13 13 13 14 14 16 20 22 18 15 14 14 13 12 12 10 5 4 6 7 7 9 12 12
4 3 3 4 5 5 6 7 8 9 9 10 10 10 11 12 12 13 13 13 14 14 15 15 15 19 25 27 25 22 24 25 22 16 13 11 12 11 9 8 6 5 6
3 3 3 3 3 4 4 5 7 8 8 8 9 10 10 10 11 11 12 13 13 14 15 15 19 22 24 23 27 29 28 28 26 23 17 15 15 13 12 12 13 11 10
Wind_Direction
311 309 308 304 301 299 297 297 295 292 288 288 290 288 288 290 290 288 286 286 251 237 240 260 257 231 275 282 203 173 168 166 158 142 141 154 152 153 158 161 156 159 159
315 312 308 305 304 301 299 297 296 294 290 288 289 288 288 284 281 279 279 289 269 237 237 252 269 235 273 267 196 174 166 163 154 149 162 168 165 163 161 155 157 160 164
313 309 306 304 304 302 302 302 300 296 292 290 288 286 284 283 281 278 273 276 278 258 245 248 274 256 266 279 207 177 164 156 153 154 160 169 155 162 151 141 137 139 156
312 310 307 306 305 303 304 304 302 298 293 290 286 284 282 280 279 275 272 276 278 272 257 251 273 270 255 291 222 176 160 146 149 157 161 165 160 164 171 158 152 157 151
313 311 307 307 307 305 306 306 303 298 294 292 290 285 281 277 271 273 269 268 273 275 273 259 260 276 266 288 221 170 157 147 151 154 158 161 160 166 171 168 168 149 111
312 311 310 309 310 312 311 310 307 302 299 295 290 285 280 273 272 271 268 264 266 271 273 267 261 272 277 285 206 170 163 156 155 155 165 167 165 171 166 163 156 157 168
315 313 312 314 315 315 314 312 309 304 301 294 288 284 279 276 275 274 270 263 262 263 262 264 255 271 280 287 207 172 170 166 163 162 167 170 164 173 162 159 166 167 157
318 316 319 319 317 316 314 314 308 303 303 298 291 282 275 271 275 274 270 263 257 257 260 263 268 277 273 281 239 179 172 172 170 167 169 169 164 165 165 157 154 127 81
322 321 321 320 316 314 313 314 309 308 307 302 295 286 273 265 269 271 265 259 257 253 254 253 253 257 262 264 252 182 170 177 182 174 171 165 162 163 156 147 149 147 138
323 319 318 316 312 308 309 313 311 309 308 310 303 294 282 262 265 269 261 249 251 249 245 243 235 241 252 251 245 181 170 171 165 160 164 159 158 160 160 161 161 166 156
320 317 316 313 308 308 314 314 313 313 312 311 305 303 296 269 259 267 261 246 243 247 237 232 229 238 243 241 233 193 167 158 152 147 149 151 155 161 167 172 172 167 166
321 317 314 311 313 319 319 317 319 319 315 316 312 307 307 300 290 270 257 247 238 240 242 234 239 243 242 232 218 190 160 152 153 152 155 161 166 170 174 172 175 175 176
320 315 314 318 323 327 325 323 326 323 320 317 313 314 307 306 310 312 293 259 245 239 234 239 244 249 246 222 199 177 158 156 161 164 168 172 172 167 164 163 161 149 128
317 319 325 327 328 332 330 326 328 328 321 315 319 312 302 309 311 303 305 301 281 251 242 241 243 247 245 213 183 169 166 168 168 171 170 166 163 161 165 164 162 168 165
322 324 328 329 330 332 339 337 334 334 331 326 323 304 308 307 293 290 294 295 293 282 251 230 229 233 230 199 179 177 174 170 172 170 167 162 164 166 168 169 167 172 184
327 328 330 333 334 337 337 337 344 349 351 348 339 326 320 303 300 303 302 295 283 271 264 243 223 220 212 185 174 175 177 174 172 171 169 167 167 168 167 169 170 176 184
316 323 332 337 340 341 340 340 338 343 354 358 352 344 343 329 324 322 314 301 288 261 244 236 218 212 195 179 173 172 174 175 171 173 171 171 171 170 167 169 173 177 184
317 333 341 338 339 341 340 340 340 340 343 349 349 349 358 354 352 350 351 355 8 15 355 335 301 235 190 178 175 172 170 171 172 173 171 173 174 171 171 172 179 180 180
336 349 345 339 339 343 343 343 346 345 346 348 347 350 4 2 5 8 15 18 10 5 358 358 349 346 349 301 173 168 169 173 175 173 173 172 175 176 176 175 181 183 182
338 351 353 344 341 346 349 349 350 350 351 354 356 350 3 2 6 8 10 10 7 2 359 358 353 358 1 358 352 172 166 169 174 176 175 175 177 180 179 176 180 182 188
338 347 354 350 348 349 350 350 351 351 354 353 355 353 11 12 6 5 5 6 2 360 359 359 356 5 10 6 2 358 14 173 177 178 178 179 179 183 184 181 182 185 187
351 348 350 350 346 349 348 349 349 352 355 355 353 354 4 10 7 5 4 360 354 2 360 1 5 5 12 14 11 12 16 15 8 197 188 183 184 185 183 180 182 185 187
17 12 11 1 350 348 350 352 352 353 353 356 356 354 359 3 3 1 360 354 357 3 0 3 12 11 14 22 21 19 18 9 352 330 208 176 180 183 182 180 178 178 183
21 21 28 16 355 355 353 350 351 355 352 352 356 357 356 357 356 356 357 355 358 1 3 7 14 18 19 20 23 24 24 21 12 9 23 69 116 148 160 170 177 180 179
36 17 31 22 352 348 350 350 350 353 353 351 351 354 354 354 354 355 354 355 358 1 4 7 8 18 24 25 24 28 31 33 31 26 28 43 55 58 67 78 91 113 139
54 18 17 13 358 344 347 349 347 348 349 348 346 346 350 353 353 352 352 355 357 357 1 5 6 15 26 27 26 27 33 39 37 35 35 40 47 48 52 60 65 65 68